Location: Shell Point
(30.0571°N, 84.2896°W)
Time: 12:48:17
(UTC-04:00)

Meteor 2-19 Rocket - Visible Passes

Search period start: 18 April 2014 00:00
Search period end: 28 April 2014 00:00
Orbit: 937 x 958 km, 82.5° (Epoch: 17 April)

Date Brightness Start Highest point End Pass type
(mag) Time Alt. Az. Time Alt. Az. Time Alt. Az.
18 Apr 7.0 03:02:39 12° NNW 03:02:39 12° NNW 03:03:04 10° NNW visible
19 Apr 7.2 01:35:26 10° NNE 01:35:26 10° NNE 01:35:32 10° NNE visible
20 Apr 7.1 01:52:16 13° NNE 01:52:16 13° NNE 01:52:51 10° N visible
21 Apr 7.0 02:09:06 14° N 02:09:06 14° N 02:09:53 10° N visible
22 Apr 7.0 02:25:55 13° NNW 02:25:55 13° NNW 02:26:37 10° N visible
23 Apr 7.1 00:58:39 10° NNE 00:58:39 10° NNE 00:58:43 10° NNE visible
23 Apr 7.0 02:42:43 11° NNW 02:42:43 11° NNW 02:42:59 10° NNW visible
24 Apr 7.0 01:15:27 14° NNE 01:15:27 14° NNE 01:16:09 10° NNE visible
25 Apr 6.9 01:32:14 16° N 01:32:14 16° N 01:33:16 10° N visible
26 Apr 6.9 01:49:00 16° N 01:49:00 16° N 01:50:07 10° N visible
27 Apr 7.0 00:21:42 11° NNE 00:21:42 11° NNE 00:21:50 10° NNE visible
27 Apr 6.9 02:05:45 14° NNW 02:05:45 14° NNW 02:06:38 10° NNW visible
